Tracking 30995 objects as of 5-Jul-2025
HD Live streaming from Space Station
objects crossing your sky now

STARLINK-30548

Track STARLINK-30548 now!
10-day predictions
STARLINK-30548 is classified as:


NORAD ID: 58046
Int'l Code: 2023-156U
Perigee: 536.1 km
Apogee: 537.6 km
Inclination: 53.2 °
Period: 95.2 minutes
Semi major axis: 6907 km
RCS: Unknown
Launch date: October 9, 2023
Source: United States (US)
Launch site: AIR FORCE WESTERN TEST RANGE (AFWTR)
Your satellite tracking list
SPHERE-1 EYE
Track 1 satellite(s)




NASA's NSSDC Master Catalog

Two Line Element Set (TLE):
1 58046U 23156U   25186.36304169  .00000806  00000-0  63335-4 0  9992
2 58046  53.1596 235.0440 0001052  87.4340 272.6773 15.12122014 97140
Source of the keplerian elements: AFSPC